Ridgedale, MO

12:06 PM CDT on August 27, 2016 (GMT -0500)
Branson

Weather History for KBBG - December, 2013

Change the Weather History Date:

Monday, December 9, 2013

  Actual Average (KHRO) Record (KHRO)
Temperature  
Mean Temperature 24 °F 39 °F  
Max Temperature 28 °F 49 °F 75 °F (1965)
Min Temperature 19 °F 30 °F -2 °F (1917)
Degree Days  
Heating Degree Days 42 26  
Month to date heating degree days 219  
Since 1 July heating degree days 983  
Cooling Degree Days 0 0  
Month to date cooling degree days 0  
Year to date cooling degree days 1416  
Moisture  
Dew Point 16 °F    
Average Humidity 73    
Maximum Humidity 80    
Minimum Humidity 68    
Precipitation  
Precipitation 0.07 in 0.11 in 2.03 in (1971)
Month to date precipitation 1.07  
Year to date precipitation 42.01  
Snow  
Snow 0.00 in 0.00 in 1.00 in (1961)
Month to date snowfall 0.0  
Since 1 July snowfall 0.5  
Snow Depth -    
Sea Level Pressure  
Sea Level Pressure 30.22 in    
Wind  
Wind Speed 8 mph (NW)    
Max Wind Speed 15 mph    
Max Gust Speed 20 mph    
Visibility 10 miles    
Events Snow    
T = Trace of Precipitation, MM = Missing Value Source: NWS Daily Summary

Daily Weather History Graph

Daily Weather History Graph

Search for Another Location

Airport or City:

Trip Planner

Search our weather history database for the weather conditions in past years. The results will help you decide how hot, cold, wet, or windy it might be!

Date:

Astronomy

Dec. 09, 2013 Rise Set
Actual Time 7:13 AM CST 4:57 PM CST
Civil Twilight 6:44 AM CST 5:25 PM CST
Nautical Twilight 6:12 AM CST 5:58 PM CST
Astronomical Twilight 5:41 AM CST 6:29 PM CST
Moon 12:16 PM CST (12/9) No Moon Set
Length of Visible Light 10h 41m
Length of Day
9h 43m
Waxing Crescent, 51% of the Moon is Illuminated
Dec 9
Waxing Crescent
Dec 17
Full
Dec 25
Last Quarter
Jan 1
New
Jan 7
First Quarter

Hourly Weather History & Observations

Time (CST) Temp. Windchill Dew Point Humidity Pressure Visibility Wind Dir Wind Speed Gust Speed Precip Events Conditions
12:15 AM 28.4 °F 21.2 °F - N/A% 30.14 in 10.0 mi West 6.9 mph - N/A   Overcast
12:35 AM 28.4 °F 22.2 °F - N/A% 30.14 in 10.0 mi WNW 5.8 mph - N/A   Overcast
12:55 AM 28.4 °F 20.4 °F - N/A% 30.15 in 10.0 mi West 8.1 mph - N/A   Overcast
1:15 AM 28.4 °F 21.2 °F - N/A% 30.15 in 10.0 mi WNW 6.9 mph - N/A   Overcast
1:35 AM 28.4 °F 20.4 °F - N/A% 30.15 in 10.0 mi WNW 8.1 mph - N/A   Overcast
1:55 AM 26.6 °F 18.2 °F - N/A% 30.16 in 10.0 mi WNW 8.1 mph 16.1 mph N/A   Overcast
2:15 AM 26.6 °F 22.6 °F - N/A% 30.16 in 10.0 mi WNW 3.5 mph - N/A   Mostly Cloudy
2:35 AM 24.8 °F 16.9 °F - N/A% 30.16 in 10.0 mi NW 6.9 mph - N/A   Mostly Cloudy
2:55 AM 26.6 °F 16.8 °F - N/A% 30.16 in 10.0 mi NW 10.4 mph - N/A   Overcast
3:15 AM 24.8 °F 15.3 °F - N/A% 30.16 in 10.0 mi NW 9.2 mph - N/A   Overcast
3:35 AM 24.8 °F 16.1 °F - N/A% 30.16 in 10.0 mi NNW 8.1 mph - N/A   Overcast
3:55 AM 24.8 °F 14.0 °F - N/A% 30.17 in 10.0 mi NW 11.5 mph - N/A   Overcast
4:15 AM 24.8 °F 12.4 °F - N/A% 30.17 in 10.0 mi NNW 15.0 mph 19.6 mph N/A   Overcast
4:35 AM 24.8 °F 16.1 °F - N/A% 30.17 in 10.0 mi NW 8.1 mph - N/A   Overcast
4:55 AM 23.0 °F 12.4 °F - N/A% 30.18 in 10.0 mi NW 10.4 mph - N/A   Overcast
5:15 AM 23.0 °F 11.7 °F - N/A% 30.19 in 10.0 mi WNW 11.5 mph 16.1 mph N/A   Overcast
5:35 AM 23.0 °F 11.1 °F - N/A% 30.19 in 10.0 mi NNW 12.7 mph - N/A   Overcast
5:55 AM 23.0 °F 15.8 °F - N/A% 30.20 in 10.0 mi WNW 5.8 mph - N/A   Overcast
6:15 AM 23.0 °F 18.4 °F - N/A% 30.21 in 10.0 mi West 3.5 mph - N/A   Overcast
6:35 AM 23.0 °F 18.4 °F - N/A% 30.22 in 10.0 mi WNW 3.5 mph - N/A   Overcast
6:45 AM 23.0 °F 14.7 °F 17.6 °F 80% 30.22 in 10.0 mi NW 6.9 mph - N/A   Overcast
7:45 AM 23.0 °F 17.0 °F 17.6 °F 80% 30.25 in 10.0 mi WNW 4.6 mph - N/A   Overcast
8:45 AM 23.0 °F 13.9 °F 17.6 °F 80% 30.28 in 10.0 mi NW 8.1 mph - N/A   Overcast
9:45 AM 24.8 °F 14.6 °F 17.6 °F 74% 30.30 in 10.0 mi NNW 10.4 mph - N/A   Overcast
10:45 AM 24.8 °F 17.9 °F 17.6 °F 74% 30.31 in 10.0 mi NW 5.8 mph - N/A   Overcast
11:52 AM 24.8 °F 13.4 °F 17.6 °F 74% 30.28 in 10.0 mi NNW 12.7 mph - N/A   Mostly Cloudy
12:45 PM 24.8 °F 14.6 °F 15.8 °F 69% 30.27 in 10.0 mi North 10.4 mph - N/A   Overcast
1:50 PM 24.8 °F 15.3 °F 15.8 °F 69% 30.23 in 10.0 mi North 9.2 mph - N/A   Overcast
2:46 PM 23.0 °F 13.1 °F 14.0 °F 68% 30.22 in 10.0 mi North 9.2 mph - N/A   Overcast
3:46 PM 24.8 °F 17.9 °F 15.8 °F 69% 30.23 in 10.0 mi North 5.8 mph - N/A   Overcast
4:45 PM 23.0 °F 13.9 °F 14.0 °F 68% 30.23 in 10.0 mi North 8.1 mph - N/A   Overcast
5:51 PM 21.2 °F 11.7 °F 12.2 °F 68% 30.24 in 10.0 mi North 8.1 mph - N/A   Overcast
6:53 PM 21.2 °F 10.9 °F 12.2 °F 68% 30.23 in 10.0 mi North 9.2 mph - N/A   Overcast
7:54 PM 21.2 °F 10.9 °F 14.0 °F 74% 30.25 in 10.0 mi North 9.2 mph - N/A   Overcast
8:46 PM 21.2 °F 12.6 °F 14.0 °F 74% 30.28 in 10.0 mi NW 6.9 mph - N/A   Overcast
9:15 PM 21.2 °F 12.6 °F - N/A% 30.28 in 10.0 mi NW 6.9 mph - N/A   Overcast
9:35 PM 21.2 °F 14.9 °F - N/A% 30.29 in 10.0 mi NW 4.6 mph - N/A   Overcast
9:55 PM 21.2 °F 14.9 °F - N/A% 30.29 in 10.0 mi NW 4.6 mph - N/A   Overcast
10:15 PM 21.2 °F 14.9 °F - N/A% 30.29 in 10.0 mi NW 4.6 mph - N/A   Overcast
10:35 PM 21.2 °F 14.9 °F - N/A% 30.28 in 10.0 mi NW 4.6 mph - N/A Snow Light Snow
10:55 PM 21.2 °F 14.9 °F - N/A% 30.28 in 7.0 mi NW 4.6 mph - N/A Snow Light Snow
11:15 PM 21.2 °F 13.6 °F - N/A% 30.28 in 5.0 mi NW 5.8 mph - 0.01 in Snow Light Snow
11:35 PM 19.4 °F 11.5 °F - N/A% 30.28 in 9.0 mi NNW 5.8 mph - 0.02 in Snow Light Snow
11:55 PM 19.4 °F 11.5 °F - N/A% 30.28 in 3.0 mi NW 5.8 mph - 0.07 in Snow Light Snow